{"data":{"norad_id":62110,"intl_designator":"2024-220Y","name":"STARLINK-33551","alt_names":[],"object_type":"PAYLOAD","status":"ACTIVE","operator":null,"country":"US","launch_date":"2024-11-25","launch_site_code":"AFETR","launch_vehicle":null,"mission":null,"orbit_class":"UNKNOWN","rcs_meters":null,"size_class":null,"mass_kg":null,"dimensions":null,"purposes":["comms"],"wikipedia_slug":null,"has_3d_model":false,"image_url":null,"decayed_at":null,"tle_current":{"epoch":"2026-05-25T00:20:44.211840Z","epoch_age_seconds":77837,"freshness":"FRESH","line1":"1 62110U 24220Y   26145.01440060  .00015529  00000+0  57245-3 0  9990","line2":"2 62110  42.9982 134.5412 0001382 251.0953 108.9749 15.27590206 84866","mean_motion":15.27590206,"eccentricity":0.0001382,"inclination_deg":42.9982,"raan_deg":134.5412,"arg_perigee_deg":251.0953,"mean_anomaly_deg":108.9749,"bstar":0.00057245,"rev_number":8486,"period_min":94.266118907023,"perigee_km":482.07032407917,"apogee_km":483.96674746926,"semimajor_km":6861.1555357742,"source":"CELESTRAK","updated_at":"2026-05-25T13:38:19.561645Z"}}}